Regional Weather Roundup
Issued by NWS

Home | Current Version | Previous Version | Graphics & Text | Print | Product List | Glossary On
Versions: 1 2 3 4 5 6 7 8 9 10 11 12 13 14 15 16 17 18 19 20 21 22 23 24 25 26 27 28 29 30 31 32 33 34 35 36 37 38 39 40 41 42 43 44 45 46 47 48 49 50
000
ASUS44 KMEG 180610
RWRTN
TENNESSEE HOURLY STATE WEATHER ROUNDUP
NATIONAL WEATHER SERVICE MEMPHIS TN
100 AM CDT THU SEP 18 2014

TNZ002-004-019-021-049-052-054-088>092-180700-
WEST TENNESSEE

CITY           SKY/WX    TMP DP  RH WIND       PRES   REMARKS
MEMPHIS INTL   CLOUDY    69  64  84 CALM      29.94F
NWS MEMPHIS      N/A     65 N/A N/A MISG        N/A
JACKSON        CLOUDY    65  61  87 CALM      29.96F
DYERSBURG      PTCLDY    63  54  72 CALM      29.96F
UNION CITY     MOCLDY    61  59  94 NE3       29.95F
PARIS          MOCLDY    57  55  94 CALM      29.98S
HUNTINGDON     MOCLDY    58  57  96 CALM      29.97S
LEXINGTON      MOCLDY    61  59  94 CALM      29.96F
SAVANNAH       PTCLDY    61  61 100 CALM      29.97S
$$

TNZ008-025-027-028-033-062-065-066-180700-
NORTH MIDDLE TENNESSEE

CITY           SKY/WX    TMP DP  RH WIND       PRES   REMARKS
NASHVILLE      CLOUDY    64  58  80 CALM      29.99F
DICKSON        CLEAR     57  57 100 CALM      29.98F
PORTLAND       CLOUDY    59  57  94 CALM      29.99S
CLARKSVILLE    CLOUDY    62  58  86 CALM      29.98F
LEBANON        CLOUDY    62  58  87 CALM      29.97F
SMYRNA         PTCLDY    60  59  97 CALM      29.99F
MURFREESBORO   CLOUDY    62  58  87 CALM      29.98F
COOKEVILLE     CLOUDY    61  59  94 CALM      30.00S
LIVINGSTON     CLOUDY    58  56  93 CALM      30.01R
GALLATIN       CLOUDY    61  60  96 CALM      29.99F
CROSSVILLE     CLOUDY    59  54  83 W3        30.03R
$$

TNZ061-075-076-078-094-096-097-180700-
SOUTH MIDDLE TENNESSEE

CITY           SKY/WX    TMP DP  RH WIND       PRES   REMARKS
LEWISBURG      CLEAR     57  55  93 CALM      29.99S
FAYETTEVILLE   CLEAR     61  57  88 CALM      29.98F
TULLAHOMA      PTCLDY    61  55  82 CALM      30.00S
WINCHESTER     PTCLDY    61  59  94 CALM      29.99F
MCMINNVILLE    CLOUDY    63  63 100 CALM      30.00F
COLUMBIA       MOCLDY    61  61 100 CALM      29.97F
SHELBYVILLE    CLOUDY    61  59  94 CALM      30.00S
$$

TNZ017-018-042-046-047-180700-
NORTHEAST TENNESSEE

CITY           SKY/WX    TMP DP  RH WIND       PRES   REMARKS
TRI CITIES     CLEAR     54  52  93 CALM      29.97F FOG
ELIZABETHTON   CLEAR     54  52  94 CALM      29.98F
$$

TNZ012-013-036-069-073-074-180700-
CENTRAL EAST TENNESSEE

CITY           SKY/WX    TMP DP  RH WIND       PRES   REMARKS
KNOXVILLE      CLOUDY    60  57  89 CALM      29.97R
OAK RIDGE      CLOUDY    62  57  83 CALM      29.99S
GATLINBURG     CLEAR     59  57  94 SW3       29.97R
MORRISTOWN     CLEAR     61  57  88 N3        29.98R
$$

TNZ083-085-099-180700-
SOUTHEAST TENNESSEE

CITY           SKY/WX    TMP DP  RH WIND       PRES   REMARKS
CHATTANOOGA    CLOUDY    66  59  78 N3        29.98R
$$

SKY/WX REPORTED AS FAIR MEANS FEW OR NO CLOUDS BELOW
12 THOUSAND FEET.




USA.gov is the U.S. government's official web portal to all federal, state and local government web resources and services.